Time,TemperatureF,DewpointF,PressureIn,WindDirection,WindDirectionDegrees,WindSpeedMPH,WindSpeedGustMPH,Humidity,HourlyPrecipIn,Conditions,Clouds,dailyrainin,SoftwareType,DateUTC
2013-02-25 00:01:00,29.0,21.0,29.92,WNW,292,0.0,11.0,73,0.00,,,0.00,,2013-02-25 05:01:00,
2013-02-25 00:11:00,29.0,21.0,29.92,WNW,292,0.0,11.0,73,0.00,,,0.00,,2013-02-25 05:11:00,
2013-02-25 00:22:00,29.0,21.0,29.92,NW,306,0.0,7.0,73,0.00,,,0.00,,2013-02-25 05:22:00,
2013-02-25 00:32:00,29.0,21.0,29.93,NNE,28,0.0,5.0,73,0.00,,,0.00,,2013-02-25 05:32:00,
2013-02-25 00:42:00,29.0,21.0,29.93,NNE,28,0.0,5.0,73,0.00,,,0.00,,2013-02-25 05:42:00,
2013-02-25 00:52:00,29.0,21.0,29.93,North,355,0.0,7.0,73,0.00,,,0.00,,2013-02-25 05:52:00,
2013-02-25 01:02:00,29.0,22.0,29.95,North,11,5.0,10.0,74,0.00,,,0.00,,2013-02-25 06:02:00,
2013-02-25 01:11:00,29.0,22.0,29.95,North,11,5.0,10.0,74,0.00,,,0.00,,2013-02-25 06:11:00,
2013-02-25 01:21:00,29.0,22.0,29.95,NNW,332,1.0,10.0,74,0.00,,,0.00,,2013-02-25 06:21:00,
2013-02-25 01:32:00,29.0,22.0,29.95,NW,311,1.0,6.0,75,0.00,,,0.00,,2013-02-25 06:32:00,
2013-02-25 01:42:00,29.0,22.0,29.95,NW,311,1.0,6.0,75,0.00,,,0.00,,2013-02-25 06:42:00,
2013-02-25 01:52:00,30.0,23.0,29.95,SW,223,1.0,7.0,75,0.00,,,0.00,,2013-02-25 06:52:00,
2013-02-25 02:01:00,30.0,23.0,29.95,NW,313,2.0,12.0,76,0.00,,,0.00,,2013-02-25 07:01:00,
2013-02-25 02:11:00,30.0,23.0,29.95,WNW,294,2.0,11.0,76,0.00,,,0.00,,2013-02-25 07:11:00,
2013-02-25 02:21:00,30.0,23.0,29.95,WNW,294,2.0,11.0,76,0.00,,,0.00,,2013-02-25 07:21:00,
2013-02-25 02:32:00,30.0,23.0,29.95,NNE,15,5.0,9.0,76,0.00,,,0.00,,2013-02-25 07:32:00,
2013-02-25 02:42:00,30.0,23.0,29.95,NNE,15,5.0,9.0,76,0.00,,,0.00,,2013-02-25 07:42:00,
2013-02-25 02:52:00,29.0,23.0,29.95,NW,304,2.0,7.0,77,0.00,,,0.00,,2013-02-25 07:52:00,
2013-02-25 03:01:00,29.0,23.0,29.96,WNW,302,2.0,5.0,78,0.00,,,0.00,,2013-02-25 08:01:00,
2013-02-25 03:11:00,29.0,23.0,29.96,WNW,294,0.0,4.0,78,0.00,,,0.00,,2013-02-25 08:11:00,
2013-02-25 03:21:00,29.0,23.0,29.96,WNW,294,0.0,4.0,78,0.00,,,0.00,,2013-02-25 08:21:00,
2013-02-25 03:32:00,29.0,23.0,29.97,North,350,1.0,6.0,79,0.00,,,0.00,,2013-02-25 08:32:00,
2013-02-25 03:41:00,29.0,23.0,29.97,North,350,1.0,6.0,79,0.00,,,0.00,,2013-02-25 08:41:00,
2013-02-25 03:52:00,29.0,23.0,29.97,WNW,302,0.0,3.0,79,0.00,,,0.00,,2013-02-25 08:52:00,
2013-02-25 04:01:00,29.0,24.0,29.98,WNW,302,0.0,2.0,80,0.00,,,0.00,,2013-02-25 09:01:00,
2013-02-25 04:12:00,29.0,24.0,29.98,WNW,302,0.0,2.0,80,0.00,,,0.00,,2013-02-25 09:12:00,
2013-02-25 04:21:00,29.0,24.0,29.98,NNW,345,2.0,7.0,80,0.00,,,0.00,,2013-02-25 09:21:00,
2013-02-25 04:32:00,29.0,23.0,29.98,North,5,0.0,3.0,79,0.00,,,0.00,,2013-02-25 09:32:00,
2013-02-25 04:42:00,29.0,23.0,29.98,North,5,0.0,3.0,79,0.00,,,0.00,,2013-02-25 09:42:00,
2013-02-25 04:52:00,29.0,24.0,29.98,North,350,2.0,5.0,80,0.00,,,0.00,,2013-02-25 09:52:00,
2013-02-25 05:01:00,29.0,24.0,29.98,NNE,18,0.0,2.0,80,0.00,,,0.00,,2013-02-25 10:01:00,
2013-02-25 05:11:00,29.0,24.0,29.99,NW,318,0.0,3.0,80,0.00,,,0.00,,2013-02-25 10:11:00,
2013-02-25 05:21:00,29.0,24.0,29.99,NW,318,0.0,3.0,80,0.00,,,0.00,,2013-02-25 10:21:00,
2013-02-25 05:32:00,30.0,25.0,30.00,WNW,288,0.0,4.0,80,0.00,,,0.00,,2013-02-25 10:32:00,
2013-02-25 05:42:00,30.0,25.0,30.00,WNW,288,0.0,4.0,80,0.00,,,0.00,,2013-02-25 10:42:00,
2013-02-25 05:52:00,30.0,25.0,30.00,WNW,284,1.0,4.0,81,0.00,,,0.00,,2013-02-25 10:52:00,
2013-02-25 06:01:00,30.0,25.0,30.00,WNW,285,0.0,1.0,81,0.00,,,0.00,,2013-02-25 11:01:00,
2013-02-25 06:11:00,30.0,25.0,30.00,WNW,285,0.0,1.0,81,0.00,,,0.00,,2013-02-25 11:11:00,
2013-02-25 06:22:00,30.0,25.0,30.01,WNW,286,1.0,3.0,82,0.00,,,0.00,,2013-02-25 11:22:00,
2013-02-25 06:32:00,30.0,25.0,30.01,WNW,300,0.0,4.0,82,0.00,,,0.00,,2013-02-25 11:32:00,
2013-02-25 06:42:00,30.0,25.0,30.01,WNW,300,0.0,4.0,82,0.00,,,0.00,,2013-02-25 11:42:00,
2013-02-25 06:52:00,30.0,25.0,30.01,WNW,300,2.0,4.0,83,0.00,,,0.00,,2013-02-25 11:52:00,
2013-02-25 07:02:00,30.0,25.0,30.01,North,355,0.0,7.0,82,0.00,,,0.00,,2013-02-25 12:02:00,
2013-02-25 07:11:00,30.0,25.0,30.01,North,355,0.0,7.0,82,0.00,,,0.00,,2013-02-25 12:11:00,
2013-02-25 07:21:00,30.0,25.0,30.02,NW,313,2.0,4.0,82,0.00,,,0.00,,2013-02-25 12:21:00,
2013-02-25 07:32:00,31.0,26.0,30.03,NW,313,1.0,5.0,82,0.00,,,0.00,,2013-02-25 12:32:00,
2013-02-25 07:42:00,31.0,26.0,30.03,NW,313,1.0,5.0,82,0.00,,,0.00,,2013-02-25 12:42:00,
2013-02-25 07:55:00,31.0,26.0,30.04,NNE,12,2.0,7.0,82,0.00,,,0.00,,2013-02-25 12:55:00,
2013-02-25 08:02:00,32.0,27.0,30.04,NNE,21,3.0,6.0,81,0.00,,,0.00,,2013-02-25 13:02:00,
2013-02-25 08:12:00,32.0,27.0,30.04,NNE,21,3.0,6.0,81,0.00,,,0.00,,2013-02-25 13:12:00,
2013-02-25 08:22:00,33.0,28.0,30.05,NNW,344,2.0,10.0,81,0.00,,,0.00,,2013-02-25 13:22:00,
2013-02-25 08:32:00,33.0,28.0,30.05,NE,45,0.0,8.0,81,0.00,,,0.00,,2013-02-25 13:32:00,
2013-02-25 08:42:00,33.0,28.0,30.05,NE,45,0.0,8.0,81,0.00,,,0.00,,2013-02-25 13:42:00,
2013-02-25 08:52:00,33.0,28.0,30.06,NNW,331,3.0,10.0,81,0.00,,,0.00,,2013-02-25 13:52:00,
2013-02-25 09:03:00,33.0,28.0,30.06,NNE,22,3.0,8.0,80,0.00,,,0.00,,2013-02-25 14:03:00,
2013-02-25 09:17:00,33.0,28.0,30.06,NNE,22,3.0,8.0,80,0.00,,,0.00,,2013-02-25 14:17:00,
2013-02-25 09:32:00,35.0,28.0,30.06,NE,36,9.0,14.0,76,0.00,,,0.00,,2013-02-25 14:32:00,
2013-02-25 09:42:00,35.0,28.0,30.06,NE,36,9.0,14.0,76,0.00,,,0.00,,2013-02-25 14:42:00,
2013-02-25 09:52:00,36.0,29.0,30.06,NNE,25,8.0,13.0,76,0.00,,,0.00,,2013-02-25 14:52:00,
2013-02-25 10:02:00,36.0,29.0,30.07,North,5,4.0,14.0,74,0.00,,,0.00,,2013-02-25 15:02:00,
2013-02-25 10:11:00,36.0,29.0,30.07,North,5,4.0,14.0,74,0.00,,,0.00,,2013-02-25 15:11:00,
2013-02-25 10:22:00,35.0,28.0,30.07,North,5,5.0,15.0,75,0.00,,,0.00,,2013-02-25 15:22:00,
2013-02-25 10:32:00,36.0,29.0,30.07,NNW,342,4.0,13.0,75,0.00,,,0.00,,2013-02-25 15:32:00,
2013-02-25 10:42:00,36.0,29.0,30.07,NNW,342,4.0,13.0,75,0.00,,,0.00,,2013-02-25 15:42:00,
2013-02-25 10:52:00,37.0,29.0,30.07,NNE,30,3.0,11.0,73,0.00,,,0.00,,2013-02-25 15:52:00,
2013-02-25 11:02:00,38.0,30.0,30.08,NE,35,2.0,9.0,72,0.00,,,0.00,,2013-02-25 16:02:00,
2013-02-25 11:12:00,38.0,30.0,30.08,NE,35,2.0,9.0,72,0.00,,,0.00,,2013-02-25 16:12:00,
2013-02-25 11:22:00,38.0,29.0,30.07,NNE,14,0.0,8.0,69,0.00,,,0.00,,2013-02-25 16:22:00,
2013-02-25 11:32:00,38.0,28.0,30.09,NNE,27,8.0,13.0,67,0.00,,,0.00,,2013-02-25 16:32:00,
2013-02-25 11:42:00,38.0,28.0,30.09,NNE,27,8.0,13.0,67,0.00,,,0.00,,2013-02-25 16:42:00,
2013-02-25 11:52:00,38.0,28.0,30.09,ENE,60,4.0,10.0,68,0.00,,,0.00,,2013-02-25 16:52:00,
2013-02-25 12:01:00,38.0,28.0,30.09,NE,52,6.0,12.0,66,0.00,,,0.00,,2013-02-25 17:01:00,
2013-02-25 12:11:00,38.0,28.0,30.09,NE,52,6.0,12.0,66,0.00,,,0.00,,2013-02-25 17:11:00,
2013-02-25 12:21:00,38.0,28.0,30.09,North,355,6.0,9.0,66,0.00,,,0.00,,2013-02-25 17:21:00,
2013-02-25 12:32:00,38.0,28.0,30.09,NNE,12,6.0,11.0,66,0.00,,,0.00,,2013-02-25 17:32:00,
2013-02-25 12:42:00,38.0,28.0,30.09,NNE,12,6.0,11.0,66,0.00,,,0.00,,2013-02-25 17:42:00,
2013-02-25 12:52:00,38.0,28.0,30.09,North,355,3.0,8.0,66,0.00,,,0.00,,2013-02-25 17:52:00,
2013-02-25 13:01:00,38.0,28.0,30.09,East,92,2.0,9.0,66,0.00,,,0.00,,2013-02-25 18:01:00,
2013-02-25 13:12:00,38.0,28.0,30.09,East,92,2.0,9.0,66,0.00,,,0.00,,2013-02-25 18:12:00,
2013-02-25 13:21:00,39.0,28.0,30.09,North,10,2.0,11.0,65,0.00,,,0.00,,2013-02-25 18:21:00,
2013-02-25 13:32:00,39.0,28.0,30.09,NNE,24,6.0,10.0,64,0.00,,,0.00,,2013-02-25 18:32:00,
2013-02-25 13:42:00,39.0,28.0,30.09,NNE,24,6.0,10.0,64,0.00,,,0.00,,2013-02-25 18:42:00,
2013-02-25 13:52:00,39.0,28.0,30.08,NE,53,4.0,13.0,64,0.00,,,0.00,,2013-02-25 18:52:00,
2013-02-25 14:01:00,39.0,27.0,30.09,NE,53,7.0,12.0,63,0.00,,,0.00,,2013-02-25 19:01:00,
2013-02-25 14:11:00,39.0,27.0,30.09,NE,53,7.0,12.0,63,0.00,,,0.00,,2013-02-25 19:11:00,
2013-02-25 14:21:00,39.0,27.0,30.09,NE,49,5.0,13.0,63,0.00,,,0.00,,2013-02-25 19:21:00,
2013-02-25 14:32:00,39.0,28.0,30.09,NNE,33,6.0,12.0,64,0.00,,,0.00,,2013-02-25 19:32:00,
2013-02-25 14:42:00,39.0,28.0,30.09,NNE,33,6.0,12.0,64,0.00,,,0.00,,2013-02-25 19:42:00,
2013-02-25 14:52:00,39.0,28.0,30.09,East,79,2.0,11.0,64,0.00,,,0.00,,2013-02-25 19:52:00,
2013-02-25 15:01:00,39.0,27.0,30.11,NE,48,1.0,10.0,63,0.00,,,0.00,,2013-02-25 20:01:00,
2013-02-25 15:11:00,39.0,27.0,30.11,NE,48,1.0,10.0,63,0.00,,,0.00,,2013-02-25 20:11:00,
2013-02-25 15:21:00,39.0,28.0,30.11,North,5,1.0,9.0,64,0.00,,,0.00,,2013-02-25 20:21:00,
2013-02-25 15:32:00,39.0,28.0,30.10,NNE,28,5.0,9.0,65,0.00,,,0.00,,2013-02-25 20:32:00,
2013-02-25 15:42:00,39.0,28.0,30.10,NNE,28,5.0,9.0,65,0.00,,,0.00,,2013-02-25 20:42:00,
2013-02-25 15:52:00,39.0,28.0,30.11,NE,36,6.0,10.0,65,0.00,,,0.00,,2013-02-25 20:52:00,
2013-02-25 16:01:00,39.0,28.0,30.11,NE,54,3.0,7.0,65,0.00,,,0.00,,2013-02-25 21:01:00,
2013-02-25 16:11:00,39.0,28.0,30.11,NE,54,3.0,7.0,65,0.00,,,0.00,,2013-02-25 21:11:00,
2013-02-25 16:21:00,39.0,28.0,30.11,NE,43,2.0,11.0,65,0.00,,,0.00,,2013-02-25 21:21:00,
2013-02-25 16:32:00,39.0,28.0,30.11,WNW,297,1.0,6.0,65,0.00,,,0.00,,2013-02-25 21:32:00,
2013-02-25 16:42:00,39.0,28.0,30.11,WNW,297,1.0,6.0,65,0.00,,,0.00,,2013-02-25 21:42:00,
2013-02-25 16:52:00,39.0,28.0,30.09,ENE,74,4.0,10.0,64,0.00,,,0.00,,2013-02-25 21:52:00,
2013-02-25 17:01:00,39.0,28.0,30.10,ENE,65,2.0,5.0,65,0.00,,,0.00,,2013-02-25 22:01:00,
2013-02-25 17:11:00,39.0,28.0,30.10,ENE,65,2.0,5.0,65,0.00,,,0.00,,2013-02-25 22:11:00,
2013-02-25 17:21:00,39.0,28.0,30.11,ENE,64,3.0,6.0,65,0.00,,,0.00,,2013-02-25 22:21:00,
2013-02-25 17:32:00,38.0,27.0,30.11,North,9,0.0,5.0,65,0.00,,,0.00,,2013-02-25 22:32:00,
2013-02-25 17:42:00,38.0,27.0,30.11,North,9,0.0,5.0,65,0.00,,,0.00,,2013-02-25 22:42:00,
2013-02-25 17:52:00,38.0,27.0,30.11,NE,34,2.0,5.0,65,0.00,,,0.00,,2013-02-25 22:52:00,
2013-02-25 18:01:00,38.0,28.0,30.12,NE,34,0.0,4.0,66,0.00,,,0.00,,2013-02-25 23:01:00,
2013-02-25 18:11:00,38.0,28.0,30.12,NE,34,0.0,4.0,66,0.00,,,0.00,,2013-02-25 23:11:00,
2013-02-25 18:22:00,37.0,27.0,30.12,NE,34,0.0,1.0,67,0.00,,,0.00,,2013-02-25 23:22:00,
2013-02-25 18:32:00,36.0,27.0,30.13,NE,34,0.0,0.0,70,0.00,,,0.00,,2013-02-25 23:32:00,
2013-02-25 18:42:00,36.0,27.0,30.13,NE,34,0.0,0.0,70,0.00,,,0.00,,2013-02-25 23:42:00,
2013-02-25 18:52:00,34.0,28.0,30.14,NE,34,0.0,0.0,77,0.00,,,0.00,,2013-02-25 23:52:00,
2013-02-25 19:01:00,34.0,28.0,30.14,NE,34,0.0,1.0,79,0.00,,,0.00,,2013-02-26 00:01:00,
2013-02-25 19:12:00,34.0,28.0,30.14,NE,34,0.0,1.0,79,0.00,,,0.00,,2013-02-26 00:12:00,
2013-02-25 19:22:00,33.0,28.0,30.15,NE,34,0.0,0.0,80,0.00,,,0.00,,2013-02-26 00:22:00,
2013-02-25 19:32:00,34.0,28.0,30.15,NE,34,0.0,2.0,77,0.00,,,0.00,,2013-02-26 00:32:00,
2013-02-25 19:42:00,34.0,28.0,30.15,NE,34,0.0,2.0,77,0.00,,,0.00,,2013-02-26 00:42:00,
2013-02-25 19:52:00,34.0,28.0,30.16,NE,34,0.0,0.0,77,0.00,,,0.00,,2013-02-26 00:52:00,
2013-02-25 20:02:00,33.0,27.0,30.16,NE,34,0.0,0.0,79,0.00,,,0.00,,2013-02-26 01:02:00,
2013-02-25 20:11:00,33.0,27.0,30.16,NE,34,0.0,0.0,79,0.00,,,0.00,,2013-02-26 01:11:00,
2013-02-25 20:21:00,32.0,27.0,30.16,NE,34,0.0,0.0,81,0.00,,,0.00,,2013-02-26 01:21:00,
2013-02-25 20:32:00,31.0,26.0,30.16,NE,34,0.0,0.0,83,0.00,,,0.00,,2013-02-26 01:32:00,
2013-02-25 20:42:00,31.0,26.0,30.16,NE,34,0.0,0.0,83,0.00,,,0.00,,2013-02-26 01:42:00,
2013-02-25 20:52:00,31.0,27.0,30.16,NE,34,0.0,0.0,85,0.00,,,0.00,,2013-02-26 01:52:00,
2013-02-25 21:01:00,31.0,27.0,30.17,NE,34,0.0,0.0,86,0.00,,,0.00,,2013-02-26 02:01:00,
2013-02-25 21:11:00,31.0,27.0,30.17,NE,34,0.0,0.0,86,0.00,,,0.00,,2013-02-26 02:11:00,
2013-02-25 21:21:00,31.0,27.0,30.16,NE,34,0.0,1.0,86,0.00,,,0.00,,2013-02-26 02:21:00,
2013-02-25 21:32:00,31.0,27.0,30.17,NE,34,0.0,0.0,86,0.00,,,0.00,,2013-02-26 02:32:00,
2013-02-25 21:42:00,31.0,27.0,30.17,NE,34,0.0,0.0,86,0.00,,,0.00,,2013-02-26 02:42:00,
2013-02-25 21:52:00,32.0,28.0,30.17,NE,34,0.0,0.0,85,0.00,,,0.00,,2013-02-26 02:52:00,
2013-02-25 22:02:00,32.0,28.0,30.17,NE,34,0.0,1.0,85,0.00,,,0.00,,2013-02-26 03:02:00,
2013-02-25 22:11:00,32.0,28.0,30.17,NE,34,0.0,1.0,85,0.00,,,0.00,,2013-02-26 03:11:00,
2013-02-25 22:21:00,33.0,28.0,30.18,NE,34,0.0,0.0,83,0.00,,,0.00,,2013-02-26 03:21:00,
2013-02-25 22:32:00,33.0,28.0,30.17,NE,34,0.0,1.0,83,0.00,,,0.00,,2013-02-26 03:32:00,
2013-02-25 22:42:00,33.0,28.0,30.17,NE,34,0.0,1.0,83,0.00,,,0.00,,2013-02-26 03:42:00,
2013-02-25 22:52:00,33.0,28.0,30.17,NE,34,0.0,0.0,83,0.00,,,0.00,,2013-02-26 03:52:00,
2013-02-25 23:01:00,33.0,28.0,30.17,NE,34,0.0,0.0,83,0.00,,,0.00,,2013-02-26 04:01:00,
2013-02-25 23:11:00,33.0,28.0,30.17,NE,34,0.0,0.0,83,0.00,,,0.00,,2013-02-26 04:11:00,
2013-02-25 23:22:00,32.0,28.0,30.16,NE,34,0.0,0.0,84,0.00,,,0.00,,2013-02-26 04:22:00,
2013-02-25 23:32:00,32.0,28.0,30.16,NE,34,0.0,0.0,85,0.00,,,0.00,,2013-02-26 04:32:00,
2013-02-25 23:42:00,32.0,28.0,30.16,NE,34,0.0,0.0,85,0.00,,,0.00,,2013-02-26 04:42:00,
2013-02-25 23:52:00,31.0,27.0,30.15,NE,34,0.0,0.0,86,0.00,,,0.00,,2013-02-26 04:52:00,